Location: Conflandey
(47.7287°N, 6.0456°E)
Time: 20:55:05
(UTC+00:00)

Lacrosse 4 Rocket - Pass Details

Date: 24 October 2021
Orbit: 537 x 619 km, 68.0° (Epoch: 04 December)

Event Time Altitude Azimuth Distance (km) Brightness Sun altitude
Rises 19:05:34 0° 314° (NW) 2,822 5.8 -26.5°
Reaches altitude 10° 19:08:18 10° 297° (WNW) 1,932 5.0 -27.0°
Maximum altitude 19:11:21 19° 252° (WSW) 1,451 4.0 -27.5°
Drops below altitude 10° 19:14:26 10° 207° (SSW) 1,952 4.2 -28.0°
Enters shadow 19:14:56 - 203° (SSW) 2,101 4.4 -28.1°
